User: anonymous   Login
Location: Gold Fund Mine
(38.3819°N, 119.0996°W)
Time: 22:57:28
(UTC+00:00)
Language:

Cosmos 841 Rocket - Orbit

View from above orbital plane
View from above orbital plane
View from above satellite
View from above satellite

Ground track
Ground track

The orbit data is extracted from the following two-line orbital elements,

1  9023U 76069B   20328.40501615 +.00000035 +00000-0 +19496-4 0  9990
2  9023 074.0423 299.9255 0017068 159.5829 200.6012 14.39665800325168
Epoch (UTC): 23 November 2020 09:43:13
Eccentricity: 0.0017068
inclination: 74.0423°
perigee height: 747 km
apogee height: 772 km
right ascension of ascending node: 299.9255°
argument of perigee: 159.5829°
revolutions per day: 14.39665800
mean anomaly at epoch: 200.6012°
orbit number at epoch: 32516

The dashed part of the orbit path shows where the satellite is in the earth's shadow,  

DLR